NR76G KGCN-K1Z1

Flight info

Callsign NR76G
Flight time 1h 4m
Altitude 14500
Route TBC VOR
Aircraft B36T/L-L/C

Departure

Time 2026-04-22 17:51
Airport Grand Canyon National Park Airport (KGCN)

Arrival

Time 2026-04-22 18:56
Airport Grand Canyon Bar Ten Airstrip (K1Z1)
Time Latitude Longitude Altitude Speed Heading
2026-04-22 17:33 35.95889 -112.13790 6604 ft 0 kts 40°
2026-04-22 17:45 35.95907 -112.13781 6604 ft 7 kts 338°
2026-04-22 17:46 35.95948 -112.13767 6605 ft 3 kts 38°
2026-04-22 17:46 35.95958 -112.13758 6609 ft 4 kts 33°
2026-04-22 17:46 35.95991 -112.13724 6613 ft 10 kts 40°
2026-04-22 17:46 35.96051 -112.13659 6614 ft 11 kts 39°
2026-04-22 17:47 35.96099 -112.13633 6614 ft 4 kts 342°
2026-04-22 17:47 35.96102 -112.13634 6614 ft 0 kts 334°
2026-04-22 17:48 35.96129 -112.13669 6611 ft 16 kts 299°
2026-04-22 17:48 35.96129 -112.13750 6610 ft 6 kts 235°
2026-04-22 17:48 35.96118 -112.13764 6609 ft 0 kts 219°
2026-04-22 17:50 35.96089 -112.13794 6607 ft 24 kts 221°
2026-04-22 17:50 35.95837 -112.14064 6599 ft 72 kts 221°
2026-04-22 17:50 35.95349 -112.14562 6743 ft 103 kts 220°
2026-04-22 17:51 35.94743 -112.15118 7046 ft 115 kts 218°
2026-04-22 17:51 35.94035 -112.15702 7279 ft 125 kts 218°
2026-04-22 17:51 35.93299 -112.16290 7579 ft 125 kts 214°
2026-04-22 17:51 35.92462 -112.16548 7902 ft 140 kts 168°
2026-04-22 17:52 35.91723 -112.15629 8155 ft 160 kts 133°
2026-04-22 17:52 35.91063 -112.14448 8243 ft 173 kts 131°
2026-04-22 17:52 35.90422 -112.13160 8432 ft 178 kts 127°
2026-04-22 17:52 35.90262 -112.11727 8804 ft 179 kts 53°
2026-04-22 17:53 35.91139 -112.10661 9050 ft 178 kts 43°
2026-04-22 17:53 35.92008 -112.09641 9527 ft 171 kts 37°
2026-04-22 17:53 35.92941 -112.08719 9802 ft 179 kts 33°
2026-04-22 17:53 35.93818 -112.07598 10084 ft 183 kts 52°
2026-04-22 17:54 35.94457 -112.06193 10245 ft 192 kts 69°
2026-04-22 17:54 35.94982 -112.04670 10468 ft 195 kts 68°
2026-04-22 17:54 35.95521 -112.03123 10699 ft 195 kts 67°
2026-04-22 17:54 35.96069 -112.01577 10897 ft 199 kts 69°
2026-04-22 17:55 35.96381 -112.00493 11034 ft 198 kts 75°
2026-04-22 17:55 35.96890 -111.98316 11295 ft 201 kts 77°
2026-04-22 17:55 35.97176 -111.97187 11388 ft 205 kts 72°
2026-04-22 17:55 35.97703 -111.95568 11651 ft 201 kts 68°
2026-04-22 17:56 35.98207 -111.93965 11895 ft 200 kts 70°
2026-04-22 17:56 35.98748 -111.92367 12077 ft 204 kts 63°
2026-04-22 17:56 35.99198 -111.90697 12217 ft 209 kts 80°
2026-04-22 17:56 35.99478 -111.88947 12464 ft 205 kts 81°
2026-04-22 17:57 35.99818 -111.87266 12774 ft 203 kts 78°
2026-04-22 17:57 36.00091 -111.85518 12913 ft 209 kts 85°
2026-04-22 17:57 36.00339 -111.83781 13241 ft 204 kts 79°
2026-04-22 17:57 36.00806 -111.82072 13334 ft 214 kts 69°
2026-04-22 17:58 36.01346 -111.80386 13662 ft 208 kts 70°
2026-04-22 17:58 36.01864 -111.78677 13803 ft 214 kts 70°
2026-04-22 17:58 36.02371 -111.76959 14026 ft 212 kts 71°
2026-04-22 17:58 36.02883 -111.75254 14186 ft 212 kts 69°
2026-04-22 17:59 36.03449 -111.73553 14210 ft 217 kts 72°
2026-04-22 17:59 36.03812 -111.71748 14265 ft 216 kts 83°
2026-04-22 17:59 36.04073 -111.69888 14213 ft 223 kts 85°
2026-04-22 17:59 36.04270 -111.67989 14227 ft 222 kts 87°
2026-04-22 18:00 36.04385 -111.66716 14305 ft 219 kts 88°
2026-04-22 18:00 36.04603 -111.64205 14191 ft 224 kts 89°
2026-04-22 18:00 36.04754 -111.62315 14216 ft 219 kts 89°
2026-04-22 18:00 36.04899 -111.60444 14212 ft 219 kts 89°
2026-04-22 18:01 36.05078 -111.58586 14221 ft 218 kts 83°
2026-04-22 18:01 36.05533 -111.56790 14217 ft 220 kts 65°
2026-04-22 18:01 36.06352 -111.55215 14180 ft 219 kts 46°
2026-04-22 18:01 36.07483 -111.53956 14089 ft 217 kts 28°
2026-04-22 18:02 36.08742 -111.53012 14148 ft 208 kts 19°
2026-04-22 18:02 36.10044 -111.52282 14162 ft 203 kts 11°
2026-04-22 18:02 36.11389 -111.51735 14104 ft 204 kts
2026-04-22 18:02 36.12747 -111.51469 14118 ft 192 kts 348°
2026-04-22 18:03 36.14017 -111.51692 14140 ft 179 kts 331°
2026-04-22 18:03 36.15160 -111.52213 14143 ft 173 kts 322°
2026-04-22 18:03 36.16171 -111.52920 14167 ft 162 kts 308°
2026-04-22 18:03 36.16907 -111.53933 14068 ft 155 kts 290°
2026-04-22 18:04 36.17297 -111.55110 14109 ft 141 kts 275°
2026-04-22 18:04 36.17397 -111.56283 14135 ft 135 kts 261°
2026-04-22 18:04 36.17231 -111.57416 14137 ft 133 kts 252°
2026-04-22 18:04 36.16948 -111.58503 14167 ft 132 kts 247°
2026-04-22 18:05 36.16526 -111.59520 14161 ft 134 kts 238°
2026-04-22 18:05 36.15888 -111.60376 14172 ft 137 kts 224°
2026-04-22 18:05 36.15016 -111.60908 14185 ft 146 kts 205°
2026-04-22 18:05 36.13952 -111.60956 14144 ft 159 kts 190°
2026-04-22 18:06 36.12985 -111.61021 14453 ft 126 kts 213°
2026-04-22 18:06 36.12281 -111.61667 14288 ft 132 kts 234°
2026-04-22 18:06 36.11856 -111.62658 14292 ft 132 kts 249°
2026-04-22 18:06 36.11642 -111.63777 14284 ft 134 kts 257°
2026-04-22 18:07 36.11550 -111.64928 14282 ft 135 kts 263°
2026-04-22 18:07 36.11573 -111.66113 14275 ft 137 kts 266°
2026-04-22 18:07 36.11621 -111.67281 14290 ft 137 kts 270°
2026-04-22 18:07 36.11880 -111.68464 14283 ft 147 kts 281°
2026-04-22 18:08 36.12272 -111.69609 14393 ft 143 kts 286°
2026-04-22 18:08 36.12867 -111.70573 14316 ft 138 kts 297°
2026-04-22 18:08 36.13540 -111.71480 14154 ft 142 kts 296°
2026-04-22 18:08 36.14145 -111.72413 13942 ft 136 kts 291°
2026-04-22 18:09 36.14637 -111.73379 14060 ft 133 kts 289°
2026-04-22 18:09 36.15153 -111.74341 14116 ft 138 kts 292°
2026-04-22 18:09 36.15728 -111.75315 14156 ft 140 kts 294°
2026-04-22 18:09 36.16210 -111.76344 14159 ft 139 kts 285°
2026-04-22 18:10 36.16622 -111.77433 14156 ft 140 kts 284°
2026-04-22 18:10 36.17024 -111.78524 14203 ft 139 kts 284°
2026-04-22 18:10 36.17422 -111.79621 14213 ft 140 kts 283°
2026-04-22 18:10 36.17831 -111.80756 14240 ft 150 kts 283°
2026-04-22 18:11 36.18249 -111.81947 14247 ft 149 kts 283°
2026-04-22 18:11 36.18656 -111.83113 14258 ft 148 kts 284°
2026-04-22 18:11 36.19060 -111.84294 14254 ft 148 kts 283°
2026-04-22 18:11 36.19457 -111.85458 14259 ft 146 kts 283°
2026-04-22 18:12 36.19860 -111.86613 14271 ft 149 kts 284°
2026-04-22 18:12 36.20265 -111.87798 14278 ft 149 kts 283°
2026-04-22 18:12 36.20527 -111.88602 14267 ft 147 kts 282°
2026-04-22 18:12 36.21020 -111.90144 14271 ft 143 kts 282°
2026-04-22 18:13 36.21393 -111.91305 14271 ft 144 kts 282°
2026-04-22 18:13 36.21765 -111.92460 14282 ft 145 kts 282°
2026-04-22 18:13 36.22146 -111.93606 14291 ft 144 kts 282°
2026-04-22 18:13 36.22521 -111.94737 14287 ft 140 kts 282°
2026-04-22 18:14 36.22837 -111.95854 14238 ft 131 kts 270°
2026-04-22 18:14 36.22806 -111.96812 14296 ft 104 kts 261°
2026-04-22 18:14 36.22777 -111.97703 14314 ft 109 kts 262°
2026-04-22 18:14 36.22751 -111.98708 14319 ft 120 kts 262°
2026-04-22 18:15 36.22717 -111.99745 14324 ft 124 kts 262°
2026-04-22 18:15 36.22668 -112.00880 14322 ft 135 kts 262°
2026-04-22 18:15 36.22611 -112.02020 14336 ft 132 kts 261°
2026-04-22 18:15 36.22558 -112.03122 14348 ft 125 kts 262°
2026-04-22 18:16 36.22500 -112.04240 14328 ft 131 kts 262°
2026-04-22 18:16 36.22452 -112.05375 14332 ft 133 kts 262°
2026-04-22 18:16 36.22402 -112.06521 14345 ft 134 kts 262°
2026-04-22 18:16 36.22346 -112.07667 14347 ft 133 kts 262°
2026-04-22 18:17 36.22294 -112.08821 14357 ft 135 kts 262°
2026-04-22 18:17 36.22239 -112.09992 14354 ft 137 kts 262°
2026-04-22 18:17 36.22186 -112.11165 14357 ft 136 kts 262°
2026-04-22 18:17 36.22135 -112.12339 14353 ft 136 kts 262°
2026-04-22 18:18 36.22084 -112.13502 14361 ft 136 kts 262°
2026-04-22 18:18 36.22043 -112.14682 14370 ft 138 kts 262°
2026-04-22 18:18 36.22009 -112.15873 14353 ft 138 kts 262°
2026-04-22 18:18 36.21968 -112.17035 14345 ft 129 kts 262°
2026-04-22 18:19 36.21923 -112.18145 14355 ft 133 kts 262°
2026-04-22 18:19 36.21880 -112.19309 14356 ft 137 kts 264°
2026-04-22 18:19 36.21826 -112.20480 14364 ft 136 kts 261°
2026-04-22 18:19 36.21762 -112.21628 14362 ft 132 kts 262°
2026-04-22 18:20 36.21759 -112.21698 14367 ft 132 kts 262°
2026-04-22 18:26 36.21735 -112.22314 14357 ft 134 kts 262°
2026-04-22 18:26 36.21696 -112.23357 14352 ft 135 kts 262°
2026-04-22 18:26 36.21652 -112.24519 14353 ft 135 kts 262°
2026-04-22 18:26 36.21610 -112.25682 14352 ft 137 kts 262°
2026-04-22 18:27 36.21566 -112.26877 14348 ft 139 kts 262°
2026-04-22 18:27 36.21515 -112.28064 14351 ft 135 kts 261°
2026-04-22 18:27 36.21463 -112.29244 14349 ft 140 kts 262°
2026-04-22 18:27 36.21420 -112.30439 14345 ft 138 kts 262°
2026-04-22 18:28 36.21376 -112.31629 14335 ft 139 kts 262°
2026-04-22 18:28 36.21348 -112.32416 14333 ft 138 kts 262°
2026-04-22 18:28 36.21308 -112.33623 14336 ft 139 kts 259°
2026-04-22 18:28 36.21306 -112.34810 14330 ft 136 kts 264°
2026-04-22 18:29 36.21287 -112.35980 14325 ft 135 kts 262°
2026-04-22 18:29 36.21306 -112.37134 14321 ft 133 kts 265°
2026-04-22 18:29 36.21327 -112.38288 14310 ft 135 kts 259°
2026-04-22 18:29 36.21318 -112.39440 14325 ft 134 kts 262°
2026-04-22 18:30 36.21284 -112.40602 14325 ft 137 kts 263°
2026-04-22 18:30 36.21185 -112.42963 14299 ft 135 kts 263°
2026-04-22 18:30 36.21141 -112.44105 14305 ft 132 kts 262°
2026-04-22 18:31 36.21103 -112.45257 14298 ft 136 kts 263°
2026-04-22 18:31 36.21059 -112.46436 14362 ft 143 kts 260°
2026-04-22 18:31 36.21062 -112.47700 14298 ft 146 kts 262°
2026-04-22 18:31 36.21063 -112.48935 14300 ft 142 kts 260°
2026-04-22 18:32 36.21056 -112.50170 14290 ft 143 kts 263°
2026-04-22 18:32 36.21022 -112.51395 14289 ft 142 kts 262°
2026-04-22 18:32 36.20977 -112.52615 14287 ft 142 kts 262°
2026-04-22 18:32 36.21102 -112.53826 14302 ft 142 kts 276°
2026-04-22 18:33 36.21367 -112.55011 14300 ft 143 kts 277°
2026-04-22 18:33 36.21638 -112.56194 14299 ft 143 kts 277°
2026-04-22 18:33 36.21911 -112.57379 14299 ft 143 kts 277°
2026-04-22 18:33 36.22168 -112.58565 14300 ft 142 kts 275°
2026-04-22 18:34 36.22366 -112.59759 14294 ft 140 kts 269°
2026-04-22 18:34 36.22414 -112.60953 14291 ft 138 kts 265°
2026-04-22 18:34 36.22438 -112.62144 14293 ft 138 kts 265°
2026-04-22 18:34 36.22460 -112.63330 14294 ft 138 kts 265°
2026-04-22 18:35 36.22481 -112.64518 14296 ft 138 kts 265°
2026-04-22 18:35 36.22486 -112.65711 14294 ft 138 kts 263°
2026-04-22 18:35 36.22447 -112.66911 14299 ft 141 kts 262°
2026-04-22 18:35 36.22407 -112.68127 14298 ft 141 kts 262°
2026-04-22 18:36 36.22358 -112.69345 14316 ft 144 kts 262°
2026-04-22 18:36 36.22328 -112.70604 14292 ft 147 kts 269°
2026-04-22 18:36 36.22559 -112.71854 14295 ft 151 kts 277°
2026-04-22 18:36 36.22843 -112.73097 14303 ft 149 kts 277°
2026-04-22 18:37 36.23124 -112.74360 14295 ft 149 kts 276°
2026-04-22 18:37 36.23250 -112.75610 14293 ft 146 kts 266°
2026-04-22 18:37 36.23261 -112.76869 14293 ft 146 kts 264°
2026-04-22 18:37 36.23245 -112.78097 14312 ft 137 kts 263°
2026-04-22 18:38 36.23216 -112.79275 14295 ft 137 kts 263°
2026-04-22 18:38 36.23183 -112.80455 14290 ft 137 kts 263°
2026-04-22 18:38 36.23152 -112.81629 14288 ft 137 kts 263°
2026-04-22 18:39 36.23103 -112.83973 14296 ft 135 kts 264°
2026-04-22 18:39 36.23078 -112.85139 14303 ft 137 kts 263°
2026-04-22 18:39 36.23075 -112.86343 14303 ft 142 kts 268°
2026-04-22 18:39 36.23156 -112.87577 14304 ft 144 kts 267°
2026-04-22 18:40 36.23263 -112.88867 14287 ft 153 kts 271°
2026-04-22 18:40 36.23367 -112.90149 14297 ft 147 kts 269°
2026-04-22 18:40 36.23456 -112.91397 14297 ft 145 kts 269°
2026-04-22 18:40 36.23546 -112.92629 14299 ft 143 kts 269°
2026-04-22 18:41 36.23638 -112.93861 14317 ft 146 kts 270°
2026-04-22 18:41 36.23720 -112.95158 14267 ft 157 kts 270°
2026-04-22 18:41 36.23805 -112.96477 14296 ft 151 kts 269°
2026-04-22 18:41 36.23887 -112.97771 14296 ft 150 kts 269°
2026-04-22 18:42 36.23970 -112.99038 14304 ft 146 kts 269°
2026-04-22 18:42 36.24054 -113.00296 14306 ft 147 kts 269°
2026-04-22 18:42 36.24132 -113.01552 14308 ft 146 kts 269°
2026-04-22 18:42 36.24235 -113.02865 14288 ft 155 kts 270°
2026-04-22 18:43 36.24345 -113.04168 14301 ft 149 kts 269°
2026-04-22 18:43 36.24459 -113.05428 14302 ft 145 kts 271°
2026-04-22 18:43 36.24574 -113.06668 14301 ft 144 kts 269°
2026-04-22 18:43 36.24673 -113.07914 14299 ft 143 kts 269°
2026-04-22 18:44 36.24769 -113.09116 14293 ft 142 kts 269°
2026-04-22 18:44 36.24871 -113.10344 14290 ft 141 kts 269°
2026-04-22 18:44 36.25083 -113.11522 14296 ft 144 kts 291°
2026-04-22 18:44 36.25931 -113.12212 14289 ft 152 kts 328°
2026-04-22 18:45 36.26902 -113.12639 14174 ft 148 kts 324°
2026-04-22 18:45 36.27775 -113.13208 13997 ft 129 kts 303°
2026-04-22 18:45 36.28387 -113.13999 13743 ft 131 kts 298°
2026-04-22 18:45 36.28944 -113.14881 13528 ft 126 kts 291°
2026-04-22 18:46 36.29452 -113.15763 13217 ft 133 kts 298°
2026-04-22 18:46 36.30168 -113.16510 12982 ft 141 kts 321°
2026-04-22 18:46 36.31199 -113.16903 12479 ft 161 kts 332°
2026-04-22 18:46 36.32283 -113.17206 12151 ft 166 kts 337°
2026-04-22 18:47 36.33440 -113.17464 11855 ft 169 kts 340°
2026-04-22 18:47 36.34571 -113.17675 11661 ft 158 kts 339°
2026-04-22 18:47 36.35636 -113.17995 11252 ft 158 kts 333°
2026-04-22 18:47 36.36697 -113.18322 10923 ft 158 kts 340°
2026-04-22 18:48 36.37779 -113.18528 10653 ft 157 kts 339°
2026-04-22 18:48 36.38859 -113.18805 10122 ft 164 kts 338°
2026-04-22 18:48 36.39952 -113.19217 9642 ft 161 kts 322°
2026-04-22 18:48 36.40511 -113.19858 9470 ft 144 kts 295°
2026-04-22 18:49 36.40607 -113.20066 9421 ft 140 kts 288°
2026-04-22 18:50 36.40785 -113.20720 9288 ft 129 kts 273°
2026-04-22 18:50 36.40733 -113.21811 8973 ft 126 kts 248°
2026-04-22 18:50 36.40247 -113.22644 8833 ft 116 kts 227°
2026-04-22 18:50 36.39661 -113.23337 8592 ft 111 kts 223°
2026-04-22 18:51 36.39026 -113.23905 8264 ft 121 kts 212°
2026-04-22 18:51 36.38265 -113.24295 8208 ft 112 kts 199°
2026-04-22 18:51 36.37481 -113.24292 8035 ft 116 kts 182°
2026-04-22 18:51 36.36677 -113.24100 7722 ft 122 kts 179°
2026-04-22 18:52 36.35790 -113.23828 7392 ft 138 kts 169°
2026-04-22 18:52 36.34842 -113.23671 7236 ft 131 kts 192°
2026-04-22 18:52 36.33928 -113.23800 6857 ft 133 kts 197°
2026-04-22 18:52 36.33202 -113.24209 6865 ft 102 kts 205°
2026-04-22 18:53 36.32422 -113.24072 6398 ft 123 kts 169°
2026-04-22 18:53 36.31693 -113.23721 6160 ft 98 kts 169°
2026-04-22 18:53 36.31066 -113.23475 5756 ft 94 kts 176°
2026-04-22 18:53 36.30433 -113.23399 5385 ft 86 kts 190°
2026-04-22 18:54 36.29856 -113.23461 5139 ft 87 kts 190°
2026-04-22 18:54 36.29249 -113.23338 4977 ft 90 kts 182°
2026-04-22 18:54 36.28639 -113.23304 4858 ft 83 kts 194°
2026-04-22 18:54 36.28085 -113.23319 4731 ft 78 kts 184°
2026-04-22 18:55 36.27574 -113.23242 4585 ft 70 kts 194°
2026-04-22 18:55 36.27094 -113.23230 4451 ft 71 kts 193°
2026-04-22 18:55 36.26592 -113.23176 4251 ft 71 kts 195°
2026-04-22 18:55 36.26116 -113.23136 4121 ft 62 kts 185°
2026-04-22 18:56 36.25735 -113.23105 4077 ft 45 kts 184°
2026-04-22 18:56 36.25496 -113.23081 4051 ft 19 kts 180°
2026-04-22 18:56 36.25430 -113.23059 4044 ft 4 kts 13°
2026-04-22 18:56 36.25469 -113.23072 4048 ft 9 kts 342°
2026-04-22 18:57 36.25627 -113.23097 4067 ft 37 kts 355°
2026-04-22 18:57 36.25955 -113.23125 4098 ft 49 kts 356°
2026-04-22 18:57 36.26259 -113.23150 4129 ft 37 kts 357°
2026-04-22 18:57 36.26352 -113.23146 4142 ft 0 kts 10°